,

(GMT )
St. Hubert

Weather History for EBSU - January, 2014

Change the Weather History Date:

Monday, January 20, 2014

  Actual Average Record
Temperature  
Mean Temperature 36 °F -  
Max Temperature 38 °F - - ()
Min Temperature 34 °F - - ()
Degree Days  
Heating Degree Days 29    
Moisture  
Dew Point 36 °F    
Average Humidity 95    
Maximum Humidity 99    
Minimum Humidity 92    
Precipitation  
Precipitation 0.31 in - - ()
Sea Level Pressure  
Sea Level Pressure 29.68 in    
Wind  
Wind Speed 8 mph ()    
Max Wind Speed 16 mph    
Max Gust Speed -    
Visibility 0.6 miles    
Events Fog , Rain , Snow    
T = Trace of Precipitation, MM = Missing Value Source: Averaged Metar Reports

Daily Weather History Graph

Daily Weather History Graph

Search for Another Location

Airport or City:

Trip Planner

Search our weather history database for the weather conditions in past years. The results will help you decide how hot, cold, wet, or windy it might be!

Date:

Astronomy

Jan. 20, 2014 Rise Set
Actual Time 8:26 AM CET 5:12 PM CET
Civil Twilight 7:50 AM CET 5:48 PM CET
Nautical Twilight 7:10 AM CET 6:28 PM CET
Astronomical Twilight 6:32 AM CET 7:07 PM CET
Moon 10:02 PM CET (1/20) 9:51 AM CET (1/20)
Length of Visible Light 9h 58m
Length of Day
8h 45m
Waning Gibbous, 84% of the Moon is Illuminated
Jan 20
Waning Gibbous
Jan 24
Last Quarter
Jan 30
New
Feb 6
First Quarter
Feb 15
Full

Hourly Weather History & Observations

Time (CET) Temp. Dew Point Humidity Pressure Visibility Wind Dir Wind Speed Gust Speed Precip Events Conditions
12:00 AM 36 °F 35 °F 94% 29.61 in 0 mi NNE 2.2 mph - - Fog Fog
1:00 AM 37 °F 36 °F 96% 29.60 in 2 mi North 6.7 mph - - Fog Fog
2:00 AM 38 °F 37 °F 96% 29.59 in 0 mi NNE 6.7 mph - - Snow Light Snow
3:00 AM 38 °F 37 °F 97% 29.59 in 0 mi NNE 11.2 mph - -   Unknown Precipitation
4:00 AM 38 °F 37 °F 97% 29.59 in 0 mi NNE 11.2 mph - - Snow Light Snow
5:00 AM 38 °F 38 °F 98% 29.59 in 0 mi NNE 11.2 mph - - Rain Drizzle
6:00 AM 38 °F 38 °F 99% 29.59 in 0 mi NNE 8.9 mph - - Rain Light Rain
7:00 AM 38 °F 38 °F 98% 29.61 in 0 mi NNW 4.5 mph - - Rain Light Rain
8:00 AM 38 °F 37 °F 94% 29.63 in 0 mi NW 6.7 mph - - Rain Light Rain
9:00 AM 38 °F 37 °F 95% 29.65 in 0 mi NW 8.9 mph - - Rain Drizzle
10:00 AM 38 °F 37 °F 96% 29.66 in 0 mi NNW 8.9 mph - - Snow Light Snow
11:00 AM 38 °F 37 °F 95% 29.68 in 0 mi NNW 11.2 mph - - Rain Light Rain
12:00 PM 38 °F 37 °F 95% 29.68 in 0 mi NNW 6.7 mph - - Rain Drizzle
1:00 PM 38 °F 37 °F 94% 29.68 in 0 mi North 8.9 mph - - Rain Light Rain
2:00 PM 38 °F 36 °F 92% 29.69 in 1 mi NNW 8.9 mph - - Rain Light Rain
3:00 PM 37 °F 36 °F 96% 29.70 in 3 mi North 8.9 mph - - Rain Drizzle
4:00 PM 37 °F 36 °F 93% 29.72 in 1 mi NNW 11.2 mph - - Rain Rain
5:00 PM 37 °F 36 °F 92% 29.74 in 3 mi NNW 13.4 mph - - Rain Rain
6:00 PM 37 °F 36 °F 92% 29.75 in 3 mi NW 13.4 mph - - Rain Light Rain
7:00 PM 36 °F 35 °F 95% 29.77 in 0 mi NW 13.4 mph - - Rain Light Rain
8:00 PM 35 °F 33 °F 92% 29.79 in 2 mi NW 15.7 mph - - Rain Light Rain
9:00 PM 34 °F 33 °F 97% 29.81 in 0 mi NW 13.4 mph - - Rain Drizzle
10:00 PM 35 °F 34 °F 95% 29.82 in 0 mi NW 13.4 mph - - Rain Light Rain
11:00 PM 35 °F 34 °F 93% 29.83 in 0 mi NW 11.2 mph - - Rain Drizzle